Location: Bowman Observatory
(41.0326°N, 73.6210°W)
Time: 18:24:01
(UTC-04:00)

Cosmos 2298 Rocket - Visible Passes

Search period start: 20 August 2014 00:00
Search period end: 30 August 2014 00:00
Orbit: 777 x 784 km, 74.0° (Epoch: 19 August)

Date Brightness Start Highest point End Pass type
(mag) Time Alt. Az. Time Alt. Az. Time Alt. Az.
20 Aug 5.0 05:00:17 10° S 05:05:21 48° ESE 05:10:26 10° NNE visible
21 Aug 5.7 04:27:41 10° SSE 04:32:15 30° E 04:36:50 10° NE visible
22 Aug 6.4 03:55:34 10° SE 03:59:13 19° E 04:02:53 10° NE visible
22 Aug 4.3 05:35:57 10° SW 05:41:06 51° WNW 05:46:16 10° N visible
23 Aug 6.7 03:24:31 10° ESE 03:26:16 12° E 03:28:00 10° ENE visible
23 Aug 4.0 05:02:30 10° SSW 05:07:48 81° WNW 05:13:08 10° NNE visible
24 Aug 4.4 04:30:30 17° S 04:34:34 65° ESE 04:39:50 10° NNE visible
25 Aug 5.1 03:58:29 22° SSE 04:01:26 40° ESE 04:06:22 10° NE visible
25 Aug 5.2 05:39:30 10° WSW 05:43:53 26° WNW 05:48:17 10° N visible
26 Aug 5.8 03:26:23 21° SE 03:28:21 26° E 03:32:39 10° NE visible
26 Aug 4.6 05:06:57 18° SW 05:10:27 39° WNW 05:15:24 10° N visible
27 Aug 6.2 02:54:15 15° ESE 02:55:21 16° E 02:58:29 10° ENE visible
27 Aug 4.1 04:34:48 33° SW 04:37:06 61° WNW 04:42:21 10° NNE visible
28 Aug 3.9 04:02:37 55° SSW 04:03:50 86° ESE 04:09:09 10° NNE visible
28 Aug 6.0 05:44:20 10° W 05:46:54 14° NW 05:49:29 10° NNW visible
29 Aug 4.4 03:30:22 54° ESE 03:30:38 54° ESE 03:35:48 10° NNE visible
29 Aug 5.5 05:10:55 15° W 05:13:19 20° WNW 05:17:12 10° N visible
